TimeAKST,TemperatureF,Dew PointF,Humidity,Sea Level PressureIn,VisibilityMPH,Wind Direction,Wind SpeedMPH,Gust SpeedMPH,PrecipitationIn,Events,Conditions,WindDirDegrees,DateUTC
12:53 AM,-14.1,-18.0,82,30.38,0.5,North,-9999.0,-,N/A,Fog,Light Freezing Fog,0,2013-03-05 09:53:00
1:53 AM,-15.0,-18.9,82,30.39,1.0,North,-9999.0,-,N/A,,Overcast,0,2013-03-05 10:53:00
2:18 AM,-14.8,-18.4,84,30.37,0.8,North,-9999.0,-,N/A,,Overcast,0,2013-03-05 11:18:00
3:53 AM,-17.0,-20.0,86,30.38,1.0,North,-9999.0,-,N/A,,Overcast,0,2013-03-05 12:53:00
4:01 AM,-16.6,-20.2,84,30.37,0.8,North,-9999.0,-,N/A,,Overcast,0,2013-03-05 13:01:00
4:53 AM,-17.0,-20.9,82,30.35,0.8,North,-9999.0,-,N/A,,Overcast,0,2013-03-05 13:53:00
5:19 AM,-16.6,-20.2,84,30.35,1.0,North,-9999.0,-,N/A,,Overcast,0,2013-03-05 14:19:00
5:53 AM,-17.0,-20.0,86,30.35,0.8,North,-9999.0,-,N/A,,Overcast,0,2013-03-05 14:53:00
6:21 AM,-16.6,-20.2,84,30.35,1.0,North,-9999.0,-,N/A,,Overcast,0,2013-03-05 15:21:00
6:41 AM,-16.6,-20.2,84,30.34,0.8,North,-9999.0,-,N/A,,Overcast,0,2013-03-05 15:41:00
6:53 AM,-16.1,-20.0,82,30.35,0.5,North,-9999.0,-,N/A,Fog,Light Freezing Fog,0,2013-03-05 15:53:00
7:53 AM,-16.1,-18.9,87,30.33,0.5,North,-9999.0,-,N/A,Fog,Light Freezing Fog,0,2013-03-05 16:53:00
8:53 AM,-16.1,-18.9,87,30.31,0.2,North,-9999.0,-,N/A,Fog,Light Freezing Fog,0,2013-03-05 17:53:00
8:56 AM,-16.6,-18.4,92,30.30,-9999.0,North,-9999.0,-,N/A,,Unknown,0,2013-03-05 17:56:00
9:03 AM,-16.6,-18.4,92,30.30,0.2,East,28.8,-,N/A,Fog,Light Freezing Fog,80,2013-03-05 18:03:00
9:53 AM,-15.0,-18.9,82,30.31,0.2,North,-9999.0,-,N/A,Fog,Light Freezing Fog,0,2013-03-05 18:53:00
10:09 AM,-14.8,-18.4,84,30.29,-9999.0,North,-9999.0,-,N/A,,Unknown,0,2013-03-05 19:09:00
10:25 AM,-14.8,-18.4,84,30.29,0.2,North,-9999.0,-,N/A,Fog,Light Freezing Fog,0,2013-03-05 19:25:00
10:46 AM,-14.8,-18.4,84,30.29,0.2,North,-9999.0,-,N/A,Fog,Light Freezing Fog,0,2013-03-05 19:46:00
10:53 AM,-14.1,-18.0,82,30.29,0.2,North,-9999.0,-,N/A,Fog,Light Freezing Fog,0,2013-03-05 19:53:00
11:53 AM,-13.0,-17.0,82,30.27,0.2,North,-9999.0,-,N/A,Fog,Light Freezing Fog,0,2013-03-05 20:53:00
12:53 PM,-11.9,-15.0,86,30.27,0.2,North,-9999.0,-,N/A,Fog,Light Freezing Fog,0,2013-03-05 21:53:00
1:53 PM,-9.9,-14.1,82,30.26,0.2,North,-9999.0,-,N/A,Fog,Light Freezing Fog,0,2013-03-05 22:53:00
2:53 PM,-9.0,-13.0,83,30.24,0.5,East,29.9,-,N/A,Fog,Light Freezing Fog,80,2013-03-05 23:53:00
3:29 PM,-9.4,-13.0,84,30.23,0.5,East,31.1,40.3,N/A,Fog,Light Freezing Fog,80,2013-03-06 00:29:00
3:53 PM,-9.9,-13.0,86,30.23,0.8,East,28.8,-,N/A,,Mist,80,2013-03-06 00:53:00
4:06 PM,-9.4,-13.0,84,30.22,1.2,East,26.5,-,N/A,,Partly Cloudy,80,2013-03-06 01:06:00
4:31 PM,-9.4,-13.0,84,30.22,1.0,ENE,26.5,32.2,N/A,,Mist,70,2013-03-06 01:31:00
4:49 PM,-9.4,-11.2,92,30.21,0.8,East,25.3,-,N/A,,Mist,80,2013-03-06 01:49:00
4:53 PM,-9.0,-11.9,87,30.22,0.8,East,21.9,32.2,N/A,,Mist,80,2013-03-06 01:53:00
5:16 PM,-9.4,-13.0,84,30.21,1.2,East,24.2,-,N/A,,Scattered Clouds,80,2013-03-06 02:16:00
5:53 PM,-9.9,-14.1,82,30.21,1.2,East,31.1,35.7,N/A,,Clear,80,2013-03-06 02:53:00
6:06 PM,-9.4,-14.8,77,30.20,0.8,ENE,31.1,-,N/A,,Clear,70,2013-03-06 03:06:00
6:22 PM,-9.4,-14.8,77,30.20,1.0,ENE,26.5,-,N/A,,Clear,70,2013-03-06 03:22:00
6:37 PM,-9.4,-14.8,77,30.20,3.0,ENE,21.9,-,N/A,,Clear,70,2013-03-06 03:37:00
6:51 PM,-9.4,-14.8,77,30.20,2.0,ENE,24.2,-,N/A,,Clear,70,2013-03-06 03:51:00
6:53 PM,-9.9,-14.1,82,30.20,2.0,ENE,25.3,-,N/A,,Clear,70,2013-03-06 03:53:00
7:06 PM,-9.4,-14.8,77,30.20,-9999.0,ENE,24.2,29.9,N/A,,Partly Cloudy,70,2013-03-06 04:06:00
7:48 PM,-11.2,-14.8,84,30.18,2.5,ENE,20.7,-,N/A,,Mist,70,2013-03-06 04:48:00
7:53 PM,-11.0,-15.0,83,30.19,2.0,ENE,21.9,-,N/A,,Mist,70,2013-03-06 04:53:00
7:59 PM,-11.2,-14.8,84,30.18,-9999.0,ENE,24.2,-,N/A,,Mostly Cloudy,70,2013-03-06 04:59:00
8:08 PM,-11.2,-14.8,84,30.18,-9999.0,North,-9999.0,-,N/A,,Unknown,0,2013-03-06 05:08:00
8:35 PM,-11.2,-14.8,84,30.18,2.0,North,-9999.0,-,N/A,,Mist,0,2013-03-06 05:35:00
8:53 PM,-11.0,-15.0,83,30.17,-9999.0,North,-9999.0,-,N/A,,Mostly Cloudy,0,2013-03-06 05:53:00
9:04 PM,-11.2,-14.8,84,30.15,-9999.0,North,-9999.0,-,N/A,,Unknown,0,2013-03-06 06:04:00
9:27 PM,-11.2,-14.8,84,30.15,1.8,North,-9999.0,-,N/A,,Mist,0,2013-03-06 06:27:00
9:42 PM,-11.2,-14.8,84,30.15,-9999.0,North,-9999.0,-,N/A,,Unknown,0,2013-03-06 06:42:00
10:07 PM,-11.2,-14.8,84,30.15,1.5,ENE,24.2,-,N/A,,Mist,70,2013-03-06 07:07:00
10:27 PM,-11.2,-14.8,84,30.14,1.0,ENE,26.5,-,N/A,,Overcast,70,2013-03-06 07:27:00
10:53 PM,-11.0,-15.0,83,30.14,1.0,ENE,26.5,-,N/A,,Mist,70,2013-03-06 07:53:00
11:26 PM,-11.2,-14.8,84,30.13,0.8,ENE,24.2,-,N/A,,Mist,70,2013-03-06 08:26:00
11:36 PM,-11.2,-14.8,84,30.13,1.0,ENE,23.0,-,N/A,,Mist,70,2013-03-06 08:36:00
11:49 PM,-11.2,-14.8,84,30.13,0.8,East,26.5,-,N/A,,Mist,80,2013-03-06 08:49:00
11:53 PM,-11.0,-15.0,83,30.13,0.8,East,27.6,33.4,N/A,,Mist,80,2013-03-06 08:53:00